Weather Roundup
Issued by NWS

Home | Current Version | Previous Version | Text Only | Print | Product List | Glossary On
Versions: 1 2 3 4 5 6 7 8 9 10 11 12 13 14 15 16 17 18 19 20 21 22 23 24 25 26 27 28 29 30 31 32 33 34 35 36 37 38 39 40 41 42 43 44 45 46 47 48 49 50
000
NZUS93 KARX 271559
HRRWXR

CURRENT HOURLY OBSERVATIONS ACROSS
MUCH OF THE UPPER MISSISSIPPI VALLEY
NATIONAL WEATHER SERVICE LA CROSSE WI
1000 AM CST FRI FEB 27 2015


...SOUTHEAST MINNESOTA...


CITY           SKY/WX    TMP DP  RH WIND       PRES   REMARKS
ROCHESTER      SUNNY     -4  -9  79 W6        30.53R WCI -16
ROCHESTER/MAYO FAIR       1  -4  80 W6        30.55S WCI -10
WINONA         SUNNY      1  -8  66 CALM      30.61S
AUSTIN         MOSUNNY   -4  -8  84 CALM      30.55R
ALBERT LEA     SUNNY     -2  -8  78 W3        30.55R
DODGE CENTER   SUNNY     -4  -8  84 W6        30.51S WCI -16
PRESTON        SUNNY     -4 -10  75 W3        30.55R
OWATONNA       SUNNY     -4  -9  77 S6        30.55R WCI -16
FARIBAULT      SUNNY      0  -8  71 SW5       30.56R WCI -10
$$

...ELSEWHERE IN MINNESOTA...


CITY           SKY/WX    TMP DP  RH WIND       PRES   REMARKS
MINNEAPOLIS    SUNNY      4  -5  66 SW6       30.56S WCI  -7
INTNL FALLS    SUNNY      0  -9  65 W7        30.37S WCI -13
DULUTH         SUNNY      5  -8  55 W12       30.39S WCI -11
RED WING       SUNNY      3  -6  66 W5        30.57R WCI  -6
REDWOOD FALLS  SUNNY      2  -8  63 W6        30.56S WCI  -9
MANKATO        SUNNY      0  -9  65 W5        30.56S WCI -10
FAIRMONT       SUNNY      1  -8  66 W8        30.54S WCI -12
$$

...SOUTHWEST WISCONSIN...


CITY           SKY/WX    TMP DP  RH WIND       PRES   REMARKS
LA CROSSE      SUNNY      1  -8  66 S5        30.60S WCI  -9
PRAIRIE DU CHI SUNNY     -6 -12  74 CALM      30.63S
BOSCOBEL       SUNNY      1  -8  66 SW6       30.62S WCI -10
LONE ROCK      NOT AVBL
PLATTEVILLE    SUNNY     -5 -10  77 SW3       30.58R
FORT MC COY    SUNNY      3  -8  59 SW3       30.57R
VIROQUA        FAIR      -1  -8  69 CALM      30.52S
WIS DELLS      NOT AVBL
$$

...ELSEWHERE IN WISCONSIN...


CITY           SKY/WX    TMP DP  RH WIND       PRES   REMARKS
MILWAUKEE      SUNNY     12  -6  44 W7        30.56R WCI   1
MADISON        SUNNY      7  -7  52 W3        30.56R
GREEN BAY      SUNNY     10  -4  53 SW8       30.52R WCI  -2
EAU CLAIRE     SUNNY      1  -9  62 SW8       30.54S WCI -13
BLACK RVR FLS  FAIR       2 -10  57 W3        30.55F
MEDFORD        SUNNY     -2 -12  63 SW6       30.44R WCI -14
WAUSAU         SUNNY      3 -10  54 W9        30.45S WCI -12
WIS RAPIDS     SUNNY      5 -10  50 SW8       30.52F WCI  -8
MARSHFIELD     SUNNY      1 -11  57 W10       30.48R WCI -15
RICE LAKE      SUNNY     -2 -10  68 W5        30.52R WCI -12
$$

...NORTHEAST IOWA...


CITY           SKY/WX    TMP DP  RH WIND       PRES   REMARKS
DECORAH        SUNNY     -4 -11  71 W3        30.56R
MASON CITY     SUNNY     -4  -9  79 W6        30.58S WCI -16
CHARLES CITY   MOSUNNY   -9 -15  77 W3        30.59R
OELWEIN        SUNNY     -9 -17  70 CALM      30.60R
$$

...ELSEWHERE IN IOWA...


CITY           SKY/WX    TMP DP  RH WIND       PRES   REMARKS
DES MOINES     MOSUNNY    4  -6  63 NW5       30.64S WCI  -5
IOWA CITY      SUNNY     -2  -8  76 W3        30.68R
FORT DODGE     SUNNY      0  -8  71 CALM      30.60S
$$

...NORTHERN ILLINOIS...


CITY           SKY/WX    TMP DP  RH WIND       PRES   REMARKS
CHICAGO-OHARE  SUNNY      9  -5  53 W8        30.58R WCI  -3
CHICAGO-MIDWAY SUNNY     13  -3  49 W8        30.60R WCI   2
MOLINE         SUNNY      2  -7  66 W6        30.66R WCI  -9
ROCKFORD       SUNNY      5  -7  57 W5        30.62R WCI  -4
PEORIA         SUNNY      5  -5  63 CALM      30.67R
$$

NOTE: "FAIR" INDICATES FEW OR NO CLOUDS BELOW 12,000 FEET WITH NO
SIGNIFICANT WEATHER AND/OR OBSTRUCTIONS TO VISIBILITY. WIND
SPEEDS ARE IN MILES-PER-HOUR.



USA.gov is the U.S. government's official web portal to all federal, state and local government web resources and services.